Location: ???????
(55.4231°N, 38.5570°E)
Time: 14:10:47
(UTC+00:00)

Cosmos 1703 Rocket - Pass Details

Date: 05 August 2024
Orbit: 602 x 627 km, 82.5° (Epoch: 18 September)

Event Time Altitude Azimuth Distance (km) Brightness Sun altitude
Rises 00:06:09 0° 348° (NNW) 2,886 7.6 -10.7°
Reaches altitude 10° 00:08:23 10° 350° (N) 1,980 6.8 -10.5°
Maximum altitude 00:12:46 78° 77° (ENE) 635 3.7 -10.1°
Drops below altitude 10° 00:17:10 10° 165° (SSE) 1,981 5.8 -9.7°
Sets 00:19:23 0° 166° (SSE) 2,886 6.6 -9.5°
